This is the latest recevied weather packets stored in our database for station/object NE1CU. If no packets are shown the sender has not sent any weather packets the latest 10 day(s).
| Time | Temp. | Humidity | Pressure | Rain* | Wind** | Luminosity | Snow |
|---|---|---|---|---|---|---|---|
| 1777983512 | 14.44° C | 79% | 1011.1 hPa | 0 mm | - | 148 W/m² | - |
| 1777983209 | 14.44° C | 79% | 1011 hPa | 0 mm | - | 171 W/m² | - |
| 1777982905 | 14.44° C | 81% | 1011.1 hPa | 0 mm | - | 188 W/m² | - |
| 1777982601 | 13.89° C | 82% | 1011.2 hPa | 0 mm | - | 155 W/m² | - |
| 1777982300 | 13.89° C | 82% | 1011.1 hPa | 0 mm | - | 104 W/m² | - |
| 1777981998 | 13.89° C | 82% | 1011.3 hPa | 0 mm | - | 113 W/m² | - |
| 1777981695 | 13.89° C | 82% | 1011.3 hPa | 0 mm | - | 113 W/m² | - |
| 1777981391 | 13.89° C | 83% | 1011.2 hPa | 0 mm | - | 110 W/m² | - |
| 1777981088 | 13.33° C | 87% | 1011.2 hPa | 0 mm | - | 135 W/m² | - |
| 1777980784 | 12.78° C | 89% | 1011.5 hPa | 0 mm | - | 98 W/m² | - |
| 1777980480 | 12.22° C | 92% | 1011.5 hPa | 0 mm | - | 70 W/m² | - |
| 1777980178 | 11.67° C | 94% | 1011.3 hPa | 0 mm | - | 56 W/m² | - |
| 1777979879 | 11.67° C | 95% | 1011.5 hPa | 0 mm | - | 55 W/m² | - |
| 1777979574 | 11.11° C | 95% | 1011.3 hPa | 0 mm | - | 49 W/m² | - |
| 1777979270 | 11.11° C | 95% | 1011.3 hPa | 0 mm | - | 45 W/m² | - |
| 1777978968 | 11.11° C | 95% | 1011.2 hPa | 0 mm | - | 47 W/m² | - |
| 1777978665 | 10.56° C | 95% | 1011.1 hPa | 0 mm | - | 50 W/m² | - |
| 1777978360 | 10° C | 95% | 1010.9 hPa | 0 mm | - | 52 W/m² | - |
| 1777978057 | 10° C | 95% | 1010.8 hPa | 0 mm | - | 60 W/m² | - |
| 1777977754 | 8.89° C | 95% | 1010.8 hPa | 0 mm | - | 65 W/m² | - |
| 1777977451 | 8.89° C | 95% | 1010.5 hPa | 0 mm | - | 52 W/m² | - |
| 1777977149 | 8.33° C | 95% | 1010.6 hPa | 0 mm | - | 31 W/m² | - |
| 1777976845 | 8.33° C | 95% | 1010.7 hPa | 0 mm | - | 25 W/m² | - |
| 1777976544 | 8.33° C | 95% | 1010.5 hPa | 0 mm | - | 21 W/m² | - |
| 1777976242 | 8.33° C | 95% | 1010.4 hPa | 0 mm | - | 18 W/m² | - |
* Rain latest hour (hover to see other rain measurements)
** Current wind speed in m/s (hover to see current wind gust speed)